Location: Albany
(35.0170°S, 117.8920°E)
Time: 21:24:56
(UTC+08:00)

A-11 Canister half - Pass Details

Date: 25 January 2021
Orbit: 1525 x 1684 km, 47.3° (Epoch: 03 March)

Event Time Altitude Azimuth Distance (km) Brightness Sun altitude
Rises 01:14:54 0° 323° (NW) 4,923 - -34.4°
Reaches altitude 10° 01:18:07 10° 326° (NNW) 3,942 - -34.3°
Exits shadow 01:27:36 61° 32° (NNE) 1,866 9.1 -33.7°
Maximum altitude 01:28:03 62° 44° (NE) 1,859 9.1 -33.6°
Drops below altitude 10° 01:37:53 10° 121° (ESE) 3,908 11.7 -32.9°
Sets 01:41:03 0° 123° (ESE) 4,879 12.4 -32.7°
